Kuchera_Ratio
0.0 0.0 0.0 0.0 0.0 0.0 0.0 0.0 0.0 0.0 0.0 0.0 0.0 0.0 0.0 0.0 0.0 0.0 0.0 0.0 0.0 0.0 0.0 0.0 0.0 0.0 0.0 0.0 0.0 0.0 0.0 0.0 0.0 0.0 0.0 0.0 0.0 0.0 0.0 0.0 0.0 0.5 3.3 0.0 0.0 0.0 1.5 0.0 0.0 0.0 0.0 0.0 0.0 0.0
0.0 0.0 0.0 0.0 0.0 0.0 0.0 0.0 0.0 0.0 0.0 0.0 0.0 0.0 0.0 0.0 0.0 0.0 0.0 0.0 0.0 0.0 0.0 0.0 0.0 0.0 0.0 0.0 0.0 0.0 0.0 0.0 0.0 0.0 0.0 0.0 0.0 0.0 0.0 0.1 0.0 0.0 0.0 0.0 0.0 0.0 0.0 0.0 0.0 0.0 0.0 0.0 0.0 0.0
0.0 0.0 0.0 0.0 0.0 0.0 0.0 0.0 0.0 0.0 0.0 0.0 0.0 0.0 0.0 0.0 0.0 0.0 0.0 0.0 0.0 0.0 0.0 0.0 0.0 0.0 0.0 0.0 0.0 0.0 0.0 0.0 0.0 0.0 0.0 0.0 0.0 0.0 0.0 0.0 0.0 0.0 0.0 0.0 0.0 0.0 0.0 0.0 0.0 0.0 0.0 0.0 0.0 0.0
0.0 0.0 0.0 0.0 0.0 0.0 0.0 0.0 0.0 0.0 0.0 0.0 0.0 0.0 0.0 0.0 0.0 0.0 0.0 0.0 0.0 0.0 1.9 0.0 0.0 0.0 0.0 0.0 0.0 0.0 0.0 0.0 0.0 0.0 0.0 0.0 0.0 0.0 0.0 0.0 0.0 0.0 0.0 0.0 0.0 0.0 0.0 0.0 0.0 0.0 0.0 0.0 0.0 0.0
0.0 0.0 0.0 0.0 0.0 0.0 0.0 0.0 0.0 0.0 0.0 0.0 0.0 0.0 0.0 0.0 0.0 0.0 0.0 0.0 0.0 0.0 0.0 0.0 0.0 0.0 0.0 0.0 0.0 0.0 0.0 0.0 0.0 0.0 0.0 0.0 0.0 0.0 0.0 0.0 0.0 0.0 0.0 0.0 0.0 0.0 0.0 0.0 0.0 0.0 0.0 0.0 0.0 0.0
0.0 0.0 0.0 0.0 0.0 0.0 0.0 0.0 0.0 0.0 0.0 0.0 0.0 0.0 0.0 0.0 0.0 0.0 0.0 0.0 0.0 0.0 0.0 0.7 0.0 0.0 0.0 0.0 0.0 0.0 0.0 0.0 0.0 0.0 0.0 0.0 0.0 0.0 0.0 0.0 0.0 0.0 0.0 0.0 0.0 0.0 0.0 0.0 0.0 0.0 0.0 0.0 0.0 0.0
0.0 0.0 0.0 0.0 0.0 0.0 0.0 0.0 0.0 0.0 0.0 0.0 0.0 0.0 0.0 0.0 0.0 0.0 0.0 0.0 0.0 0.0 0.0 0.0 0.0 0.0 0.0 0.0 0.0 0.0 0.0 0.0 0.0 0.0 0.0 0.0 0.0 0.0 0.0 0.0 0.0 0.0 0.0 0.0 0.0 0.0 0.0 0.0 0.0 0.0 0.0 0.0 0.0 0.0
0.0 0.0 0.0 0.0 0.0 0.0 0.0 0.0 0.0 0.0 0.0 0.0 0.0 0.0 0.0 0.0 0.0 0.0 0.0 0.0 0.0 0.0 0.0 0.0 1.3 0.0 0.0 0.0 0.0 0.0 0.0 0.0 0.0 0.0 0.0 0.0 0.0 0.0 0.0 0.0 0.0 0.0 0.0 0.0 0.0 0.0 0.0 0.0 0.0 0.0 0.0 0.0 0.0 0.0
0.0 0.0 0.0 0.0 0.0 0.0 0.0 0.0 0.0 0.0 0.0 0.0 0.0 0.0 0.0 0.0 0.0 0.0 0.0 0.0 0.0 0.0 0.0 0.5 5.3 8.9 0.0 0.0 0.0 0.0 0.0 0.0 0.0 0.0 0.0 0.0 0.0 0.3 1.3 0.0 0.0 0.0 0.0 0.0 0.0 0.0 0.0 0.0 0.0 0.0 0.0 0.0 0.0 0.0
0.0 0.0 0.0 0.0 0.0 0.0 0.0 0.0 0.0 0.0 0.0 0.0 0.0 0.0 1.5 0.0 0.0 0.0 0.0 0.0 0.0 0.0 0.0 3.3 0.0 6.7 0.5 2.1 0.0 0.0 0.0 0.0 0.0 0.0 0.0 0.0 0.7 0.7 1.3 0.0 0.0 0.0 0.0 0.0 0.0 0.0 0.0 0.0 0.0 0.0 0.0 0.0 0.0 0.0
0.0 0.0 0.0 0.0 0.0 0.0 0.0 0.0 0.0 0.0 0.0 0.0 0.0 1.7 0.0 0.0 0.0 0.0 0.0 0.0 0.0 2.5 0.0 0.0 0.3 4.1 0.3 5.9 3.9 0.0 3.9 0.0 4.3 0.0 0.0 0.0 6.3 5.3 2.1 3.9 0.5 0.0 0.0 0.0 0.0 0.0 0.0 0.0 0.0 0.0 0.0 0.0 0.0 0.0
0.0 0.0 0.0 0.0 0.0 0.0 0.0 0.0 0.0 0.0 0.0 0.0 0.0 0.0 0.0 0.0 2.3 5.3 4.9 4.1 2.9 4.5 0.0 1.5 0.1 1.9 5.5 0.0 2.3 0.9 4.9 4.5 6.9 0.0 2.4 12.4 10.3 4.7 4.9 5.5 5.5 3.7 1.5 1.3 0.0 0.1 0.9 1.3 0.7 2.3 2.7 2.8 3.6 4.3
0.0 0.0 0.0 0.0 0.0 0.0 0.0 0.0 0.0 0.0 0.0 0.0 0.0 0.0 3.3 5.1 9.3 8.9 12.0 7.7 6.7 6.7 3.7 2.5 5.5 1.5 0.0 0.0 3.1 2.3 7.9 7.7 4.4 8.1 12.4 12.2 8.1 6.3 6.3 7.1 7.9 6.9 6.9 6.9 8.1 7.1 7.0 7.5 8.1 7.0 6.1 7.6 7.7 9.9
0.0 0.0 0.0 0.0 0.0 0.0 0.0 0.0 0.0 0.0 0.0 0.9 4.7 10.3 8.9 11.3 11.3 12.5 12.0 9.7 7.1 6.9 7.1 5.5 2.7 4.9 5.1 6.7 7.1 7.7 8.1 7.1 9.5 12.4 14.7 12.3 10.3 9.1 8.5 8.3 9.7 11.5 11.3 11.9 12.0 11.7 11.3 10.5 10.3 11.2 11.9 11.9 12.6 13.0
0.0 0.0 0.0 0.0 0.0 0.0 0.0 0.0 0.0 0.0 0.0 7.3 4.9 13.2 12.6 10.1 9.1 9.1 7.7 6.7 6.9 6.3 6.9 4.9 4.9 4.5 6.3 7.7 7.1 6.1 8.5 13.9 13.8 15.1 13.5 11.5 10.3 10.1 10.5 10.3 10.9 11.9 12.2 12.5 12.5 13.0 13.3 13.2 13.3 13.3 12.8 12.8 13.1 13.6
0.0 0.0 0.0 0.0 0.0 0.0 0.0 0.0 0.0 0.0 0.0 8.1 12.1 13.3 12.1 10.9 12.1 10.7 9.9 8.9 5.3 9.1 7.3 5.1 7.1 7.9 9.7 9.3 11.9 13.5 13.0 16.1 15.2 13.5 12.6 10.7 12.1 11.9 11.9 11.9 12.0 11.9 12.1 12.4 12.4 12.8 13.2 13.8 14.2 14.3 13.8 13.8 13.9 14.0
0.0 0.0 0.0 0.0 0.0 0.0 0.0 0.0 0.0 8.1 10.5 11.5 13.6 11.5 11.9 11.7 12.6 10.3 9.3 8.7 4.7 7.3 8.5 6.9 12.1 12.8 4.9 12.2 15.0 13.0 15.9 14.8 13.7 13.0 12.7 12.8 12.6 12.7 12.8 12.9 12.7 12.4 12.3 12.3 12.4 12.5 12.8 12.7 12.7 13.1 14.3 13.9 13.6 13.9
0.0 0.0 0.0 0.0 0.0 0.0 0.0 0.0 6.3 10.1 14.6 13.4 14.2 13.6 11.9 11.1 12.2 10.3 9.1 7.3 5.9 5.7 6.1 12.4 9.9 14.5 15.5 15.7 15.9 13.4 13.7 13.3 13.5 14.3 13.7 13.0 13.2 13.3 12.8 13.2 13.0 13.0 13.3 13.4 13.2 12.9 12.7 12.9 13.2 13.5 13.1 13.1 13.3 13.5
0.0 0.0 0.0 0.0 0.0 0.0 0.9 3.5 2.7 13.2 13.5 12.0 12.3 11.9 11.7 12.0 10.7 9.1 8.5 7.7 6.1 5.3 8.7 12.7 15.6 16.7 16.6 14.4 13.8 13.0 13.0 13.6 14.6 14.5 14.3 13.9 13.1 13.3 13.5 13.6 13.7 13.8 13.7 13.7 13.8 14.4 14.5 14.5 14.3 13.7 13.5 13.6 15.0 14.3
0.0 0.0 0.0 0.0 0.0 0.0 4.7 6.1 0.0 8.5 12.9 12.4 10.9 12.8 13.0 13.5 12.1 12.8 12.2 9.5 10.5 12.9 15.5 17.4 17.6 16.5 16.0 15.0 13.6 12.6 12.1 12.3 13.4 15.0 15.2 14.3 13.7 13.9 14.1 13.7 13.8 14.0 14.6 15.0 15.0 14.5 14.6 14.9 14.4 14.5 15.1 15.5 15.9 16.6
0.0 0.0 0.0 0.0 0.0 0.0 3.1 3.3 5.3 4.7 6.7 9.1 7.5 9.3 12.0 10.5 13.7 14.3 13.4 10.7 14.3 15.2 17.1 15.8 15.9 15.0 13.6 13.3 12.7 12.6 13.1 12.5 13.7 14.1 14.9 15.5 14.2 14.0 14.2 14.0 13.9 14.1 15.1 15.8 16.7 17.0 16.4 16.3 15.5 14.9 15.7 16.8 17.2 16.7
0.0 0.0 0.0 0.0 0.0 0.0 1.1 0.0 0.3 0.0 3.3 4.9 5.5 5.7 11.3 13.3 13.5 13.4 12.0 14.8 16.4 15.9 14.7 14.7 14.5 14.2 14.1 14.2 13.6 13.2 13.5 13.4 13.5 13.6 13.8 13.9 15.7 15.4 15.3 14.6 14.9 16.2 16.1 16.3 17.0 17.9 17.7 17.9 16.4 16.1 17.0 16.7 16.3 17.4
0.0 0.0 0.0 0.0 5.9 5.7 7.5 0.0 6.7 1.9 9.3 7.5 5.5 11.3 12.6 13.3 11.3 6.1 15.6 15.2 15.3 13.5 13.3 13.5 13.5 12.8 13.8 13.3 12.9 12.8 12.4 13.0 13.9 13.9 14.2 14.3 14.4 14.8 15.2 15.3 15.1 16.2 16.8 16.4 15.7 16.7 17.8 18.2 17.9 17.8 17.7 18.1 18.1 18.2
0.0 5.3 8.9 8.3 6.1 12.2 4.9 8.7 1.5 5.7 6.1 9.7 12.1 14.7 14.3 12.7 8.1 14.1 18.1 16.7 15.0 12.8 13.1 13.2 12.6 13.8 13.9 14.5 15.1 14.5 13.1 12.5 13.6 13.7 13.1 14.2 15.9 16.4 16.2 17.0 17.1 16.9 16.4 16.1 16.8 17.8 18.2 18.7 19.4 18.7 19.5 20.4 20.8 20.4
8.3 13.1 9.3 12.2 5.3 8.9 11.5 11.7 10.7 10.3 13.3 11.9 14.0 14.4 13.8 9.5 14.8 16.1 17.8 16.7 15.6 15.1 14.7 13.7 13.5 13.8 15.7 15.9 15.3 14.9 13.6 13.4 15.4 16.8 15.8 14.3 14.5 14.4 16.2 17.5 18.4 18.4 17.5 18.7 19.3 19.4 19.9 19.6 20.1 20.1 20.2 21.4 22.5 21.7
14.6 13.3 12.2 11.3 11.1 11.1 10.9 13.4 13.0 12.9 12.8 14.5 14.6 12.7 11.1 13.7 16.5 18.5 17.0 16.4 16.6 16.2 15.4 14.8 15.1 15.7 16.1 15.0 16.4 16.8 16.2 13.1 14.4 18.0 17.7 17.0 17.4 17.8 18.3 19.3 19.7 20.9 18.7 19.2 20.2 20.4 20.7 20.8 21.4 21.6 21.7 21.4 23.4 22.8
14.5 14.4 11.3 4.1 6.1 7.7 11.1 9.9 9.1 12.7 14.5 15.2 14.1 14.2 14.3 18.1 19.5 18.3 15.9 15.2 16.3 15.8 14.6 14.0 13.9 15.1 16.1 16.3 16.0 16.0 16.0 16.5 17.2 17.6 17.0 17.5 18.0 18.3 19.9 21.8 23.3 22.3 19.6 20.7 20.7 21.1 21.5 21.8 22.0 22.0 22.3 22.1 22.3 22.9
12.7 12.0 15.6 13.7 14.2 11.9 14.6 14.5 14.9 15.7 15.6 13.5 13.3 18.4 18.9 18.6 19.4 16.8 16.4 15.4 15.5 15.0 15.3 15.4 15.2 15.2 16.1 16.3 15.8 15.9 16.0 16.8 17.7 16.5 16.9 17.7 18.0 18.7 19.3 19.7 20.9 20.6 20.5 21.2 21.5 21.7 21.8 22.3 22.4 22.4 23.0 23.6 23.3 22.1
13.4 12.3 14.2 17.0 16.4 16.6 17.0 16.3 17.0 16.7 15.9 14.4 16.2 18.8 19.8 17.5 16.2 16.9 16.1 15.3 14.3 15.3 16.9 17.8 17.6 16.5 17.0 17.2 17.7 17.9 18.1 18.7 19.2 21.1 21.2 20.7 20.3 21.2 19.6 19.9 20.1 20.3 20.6 20.5 20.1 20.6 21.8 22.5 22.8 23.4 23.5 23.4 22.5 21.8
13.8 10.1 16.1 17.3 17.8 19.3 18.9 16.5 17.9 15.7 15.0 16.5 17.1 18.1 18.7 18.3 16.7 14.3 15.1 15.3 15.9 17.0 16.8 16.8 16.7 16.7 17.8 17.8 19.2 19.9 19.9 20.5 21.5 21.7 22.0 22.4 22.4 21.1 20.5 21.0 21.3 21.1 21.1 21.3 21.8 21.5 20.4 22.3 21.7 21.5 22.5 22.6 22.9 23.9
9.1 11.9 15.2 16.6 19.1 17.9 17.3 15.8 15.3 15.4 15.6 16.5 15.8 18.6 20.1 19.6 17.9 16.3 16.1 16.2 16.6 16.9 17.5 18.3 18.2 17.5 18.2 18.9 19.3 19.7 21.2 21.3 22.5 22.6 22.9 21.2 20.8 20.6 21.1 21.6 21.1 21.5 21.8 22.0 22.7 22.8 22.9 23.7 23.6 23.6 23.4 23.9 24.5 24.8
12.7 14.3 16.8 19.1 19.1 16.6 15.3 14.7 14.8 15.9 16.0 17.1 18.4 18.0 18.0 17.8 20.0 19.0 17.0 16.5 17.1 17.6 21.2 17.6 18.3 19.7 19.3 19.8 20.4 22.0 24.1 21.0 20.8 21.7 21.9 22.0 21.5 21.9 21.9 22.2 21.7 21.5 22.2 23.1 23.4 23.3 23.3 23.8 24.5 24.5 24.7 24.8 25.1 25.9
13.8 14.1 14.9 16.1 17.0 16.4 15.4 14.3 15.4 16.9 16.1 17.4 18.3 17.5 18.3 17.9 20.5 19.5 17.4 16.7 17.3 17.2 17.8 18.1 18.5 19.5 20.5 20.7 20.3 21.1 23.9 21.3 24.4 24.4 24.7 25.3 27.0 25.9 25.6 23.5 22.7 23.2 24.0 24.4 24.1 23.9 24.0 24.1 24.6 25.1 25.8 26.3 26.2 26.0